TIME,DELAY(SENSOR),PRES,OXYGEN,RAWTEMP,T(OPTODE),TCPHASE,FLUOR,BETA(BETA700),BETA(BETA412),BETA(BETA440),CDOM,C(CSC),ED(ED412.40),ED(ED444.00),ED(ED489.70),ED(ED554.30),LU(LU411.80),LU(LU443.40),LU(LU489.60),LU(LU554.10),COMP,TILTX,TILTY,CHECK
1360035770,5811,899.4299926757812000,45.5322494506835940,660.8245849609375000,4.6008219718933105,54.1906394958496100,53,101,85,78,80,14994,2147754962,2147427977,2148009874,2147874651,2147640676,2147063168,2148260416,2147199049,79,4,13,62389
1360039366,5809,978.0999755859375000,51.5956802368164060,668.1566772460938000,4.3590698242187500,53.4256210327148440,53,98,88,78,80,14997,2147759195,2147424100,2148011556,2147873179,2147640237,2147059026,2148264996,2147196964,2631,4,13,5278
1360042966,5807,986.1599731445312000,52.1426696777343750,669.5372924804688000,4.3134818077087400,53.3739089965820300,51,98,88,79,80,14998,2147754313,2147425060,2148010697,2147874194,2147643373,2147059812,2148255204,2147198939,3586,4,13,60083
1360046566,5810,991.5700073242188000,52.8748703002929700,670.1953125000000000,4.2917461395263670,53.2771606445312500,52,96,85,79,80,14995,2147755940,2147423524,2148007990,2147874806,2147641170,2147059830,2148256630,2147198061,436,4,13,61077
1360050166,5810,996.0000000000000000,52.6675796508789060,670.1201782226562000,4.2942261695861820,53.3047790527343750,52,97,88,78,80,14996,2147756361,2147423872,2148012534,2147873856,2147642029,2147061229,2148262912,2147198043,3526,4,13,25988
1360053766,5810,1000.2000122070312000,53.2284584045410160,670.3524169921875000,4.2865538597106930,53.2355308532714840,53,98,88,78,81,14999,2147759158,2147423908,2148009929,2147873216,2147640365,2147059721,2148264630,2147200064,112,4,14,54841
1360057366,5806,1001.8800048828125000,53.1553306579589840,670.9232788085938000,4.2676930427551270,53.2498397827148440,52,98,86,78,80,14998,2147754779,2147426102,2148009444,2147873371,2147645147,2147052617,2148264685,2147194523,437,4,13,49994
1360060966,5808,1000.0499877929688000,53.2174606323242200,671.2390136718750000,4.2572588920593260,53.2512092590332000,53,96,89,78,80,14993,2147756653,2147426157,2148011721,2147876544,2147644827,2147054665,2148260114,2147194176,257,4,13,48537
1360064566,5808,993.4099731445312000,53.3031883239746100,671.7951049804688000,4.2388801574707030,53.2453918457031250,53,97,86,78,80,14992,2147755840,2147425197,2148010889,2147875355,2147641636,2147057910,2148265517,2147198893,18,4,13,55311
1360068166,5810,1003.3800048828125000,50.7841911315918000,672.4697265625000000,4.2165780067443850,53.5963211059570300,52,98,88,79,80,14990,2147757988,2147426066,2148009216,2147871606,2147641819,2147055488,2148264347,2147196361,500,4,14,48958
1360071766,5811,1009.1400146484375000,52.6445083618164060,671.3233032226562000,4.2544751167297360,53.3267402648925800,51,98,85,80,80,14989,2147757028,2147423899,2148011291,2147872457,2147642166,2147061193,2148255917,2147198656,959,4,13,61421
1360075366,5811,1002.8499755859375000,52.8018913269043000,671.5684204101562000,4.2463760375976560,53.3050308227539060,52,98,87,79,79,14992,2147756288,2147426230,2148010450,2147874066,2147645174,2147053897,2148262564,2147195245,480,4,13,49910
1360078966,5806,991.6699829101562000,51.7073707580566400,673.3317871093750000,4.1880698204040530,53.4763298034668000,52,97,85,80,81,14987,2147758802,2147425920,2148012928,2147876077,2147639890,2147055369,2148261028,2147200475,3590,4,14,35418
1360082566,5807,995.0900268554688000,51.7329597473144500,674.0435180664062000,4.1645321846008300,53.4836616516113300,52,99,84,79,81,14985,2147759972,2147426925,2148007798,2147875035,2147643328,2147053101,2148264758,2147196315,3533,4,13,20080
1360086166,5810,1003.3400268554688000,50.3114318847656250,675.1343994140625000,4.1284389495849610,53.6948699951171900,52,98,85,79,80,14983,2147757302,2147423387,2148012864,2147873216,2147644416,2147059136,2148262646,2147196836,486,4,13,20052
1360089766,5806,1001.0300292968750000,51.3499908447265600,674.1809082031250000,4.1599860191345215,53.5415000915527340,52,99,91,79,80,14986,2147756461,2147422491,2148008557,2147873856,2147645083,2147055561,2148260379,2147197915,110,4,13,40810
1360093366,5807,1003.4400024414062000,49.6784706115722660,675.8474731445312000,4.1048388481140140,53.7893905639648440,52,97,85,78,80,14978,2147760950,2147424530,2148008009,2147873353,2147646272,2147052918,2148262217,2147198710,45,4,13,33782
1360096966,5806,1010.6900024414062000,51.8867683410644500,673.3433837890625000,4.1876869201660160,53.4541816711425800,52,97,87,79,81,14982,2147756800,2147426633,2148010112,2147873892,2147643282,2147058761,2148259282,2147195465,3396,4,13,13614
1360100566,5809,1002.4199829101562000,52.6471481323242200,673.1110839843750000,4.1953721046447750,53.3453788757324200,51,99,87,80,81,14983,2147754285,2147425124,2148008704,2147875931,2147643812,2147054345,2148261211,2147199122,3541,4,13,7702
1360104166,5807,1005.0100097656250000,50.9939308166503900,674.7963256835938000,4.1396269798278810,53.5966682434082000,53,99,86,79,81,14981,2147755227,2147424905,2148011876,2147873865,2147642066,2147056475,2148262930,2147194541,3474,4,13,34444
1360107766,5809,1006.4500122070312000,49.9172210693359400,675.9976196289062000,4.0998711585998535,53.7601318359375000,53,98,88,77,81,14979,2147761782,2147425170,2148009746,2147871360,2147643090,2147057536,2148267419,2147200182,106,4,13,1600
1360111366,5808,1003.7100219726562000,49.9043312072753900,675.4238891601562000,4.1188578605651855,53.7487792968750000,53,100,87,78,81,14979,2147757174,2147420626,2148008091,2147871945,2147644324,2147059446,2148261056,2147199780,497,4,13,7215
1360114966,5809,1008.0399780273438000,49.9145393371582000,676.0321044921875000,4.0987281799316410,53.7585182189941400,52,99,88,79,81,14978,2147760850,2147425316,2148007561,2147873691,2147641737,2147052854,2148266596,2147200402,63,4,13,52384
1360118566,5809,1011.2199707031250000,49.7167205810546900,674.9915771484375000,4.1331648826599120,53.7696189880371100,52,98,86,78,80,14976,2147755748,2147423104,2148012022,2147874550,2147644214,2147056512,2148261312,2147201929,557,4,13,45431
1360122166,5812,1016.4500122070312000,51.0513191223144500,672.3217163085938000,4.2214717864990230,53.5563392639160160,53,98,85,78,82,14980,2147755602,2147424841,2148009947,2147874788,2147644141,2147057810,2148262692,2147202459,490,4,13,42913
1360125766,5809,1019.2800292968750000,52.7254714965820300,671.9293212890625000,4.2344441413879395,53.3237113952636700,53,97,85,78,80,14980,2147755894,2147423652,2148010258,2147872484,2147642752,2147051446,2148259465,2147200329,3322,4,13,51438
1360129366,5809,1011.5399780273438000,52.4078483581543000,671.6428833007812000,4.2439098358154300,53.3637695312500000,53,98,84,79,80,14976,2147759049,2147422582,2148007670,2147873947,2147643108,2147057572,2148255296,2147194468,227,4,13,14175
1360132966,5811,1012.5900268554688000,51.2408218383789060,673.8328857421875000,4.1714968681335450,53.5481986999511700,52,100,88,80,81,14976,2147755072,2147420982,2148008960,2147872018,2147642706,2147056969,2148264429,2147196736,3314,4,13,15329
1360136566,5805,1009.4099731445312000,50.4289817810058600,674.4016723632812000,4.1526827812194820,53.6640281677246100,51,95,84,79,80,14971,2147755437,2147421668,2148010240,2147875227,2147641389,2147055213,2148266669,2147200054,3295,4,13,39047
1360140166,5806,1014.5300292968750000,50.5658988952636700,674.0447998046875000,4.1644902229309080,53.6465797424316400,53,98,84,79,80,14973,2147757741,2147422546,2148008804,2147872978,2147643126,2147058715,2148260096,2147200768,3485,4,13,11284
1360143766,5809,1010.4400024414062000,50.5191497802734400,674.0471191406250000,4.1644129753112790,53.6481285095214840,53,97,87,78,79,14969,2147754980,2147422281,2148007030,2147875456,2147643986,2147056393,2148260873,2147202139,3394,4,14,48233
1360147366,5809,1017.7100219726562000,53.1105690002441400,671.5968017578125000,4.2454361915588380,53.2630004882812500,53,106,83,79,79,14969,2147755977,2147422665,2148006811,2147873170,2147641526,2147056402,2148259785,2147197787,238,4,13,47576
1360150966,5809,1016.7999877929688000,52.6982498168945300,671.5034179687500000,4.2485218048095700,53.3231010437011700,52,96,89,78,80,14971,2147755245,2147422774,2148008100,2147875392,2147642450,2147061851,2148267099,2147199396,359,4,13,11860
1360154566,5808,1014.1599731445312000,51.8469810485839840,671.0961303710938000,4.2619819641113280,53.4295692443847660,52,99,88,80,80,14969,2147752658,2147424320,2148010596,2147869376,2147642066,2147058688,2148268406,2147198409,268,4,13,65312
1360158166,5811,1016.3699951171875000,51.5276298522949200,671.2205200195312000,4.2578701972961430,53.4728012084960940,52,98,88,78,80,14963,2147753572,2147423350,2148007360,2147875117,2147643346,2147056795,2148258203,2147200027,177,4,14,41766
1360161766,5810,1007.7999877929688000,51.9591293334960940,673.7202758789062000,4.1752219200134280,53.4455909729003900,52,98,86,79,80,14969,2147754075,2147423204,2148006902,2147874048,2147644324,2147053568,2148262326,2147198336,184,4,13,44341
1360165366,5810,1008.0100097656250000,50.0628089904785160,675.2999267578125000,4.1229629516601560,53.7299385070800800,52,99,88,78,81,14957,2147757741,2147424612,2148010066,2147872905,2147643958,2147061138,2148263542,2147199305,3085,4,13,8432
1360168966,5808,1014.2100219726562000,49.4620780944824200,675.8765869140625000,4.1038761138916020,53.8188781738281250,52,99,87,80,80,14954,2147756342,2147426185,2148009718,2147872676,2147642633,2147056640,2148260964,2147198317,3590,4,13,63212
1360172566,5807,1009.6799926757812000,49.4609184265136700,676.1237182617188000,4.0956950187683105,53.8184700012207000,52,97,88,78,82,14958,2147753654,2147425206,2148008886,2147871305,2147644672,2147055433,2148262509,2147198720,156,4,13,10537
1360176166,5810,1012.0399780273438000,49.1730804443359400,675.5759887695312000,4.1138229370117190,53.8555793762207000,53,99,86,78,81,14956,2147755620,2147421056,2148010560,2147873828,2147641252,2147059062,2148262290,2147196470,172,4,13,47485
1360179766,5809,1009.1599731445312000,49.6777114868164060,676.1497802734375000,4.0948300361633300,53.7941703796386700,51,99,86,80,81,14954,2147756662,2147423177,2148006866,2147874651,2147644059,2147061101,2148259830,2147197403,3572,4,13,38721
1360180855,5810,1004.4699707031250000,50.3016700744628900,676.9232788085938000,4.0692210197448730,53.7142601013183600,52,100,88,79,81,14978,2147757147,2147422363,2148007222,2147872896,2147645174,2147057609,2148257152,2147198244,57,4,13,25881
